{"data":{"norad_id":32258,"intl_designator":"2007-046A","name":"WGS F1 (USA 195)","alt_names":[],"object_type":"PAYLOAD","status":"ACTIVE","operator":null,"country":"US","launch_date":"2007-10-11","launch_site_code":"AFETR","launch_vehicle":null,"mission":null,"orbit_class":"UNKNOWN","rcs_meters":15.8866,"size_class":null,"mass_kg":null,"dimensions":null,"purposes":["comms"],"wikipedia_slug":null,"has_3d_model":false,"image_url":null,"decayed_at":null,"tle_current":{"epoch":"2026-09-19T06:30:20.471328Z","epoch_age_seconds":120475,"freshness":"FRESH","line1":"1 32258U 07046A   26262.27107027 -.00000271  00000+0  00000+0 0  9990","line2":"2 32258   0.0135 125.6676 0000566  57.2121 230.3842  1.00272373 53273","mean_motion":1.00272373,"eccentricity":5.66e-5,"inclination_deg":0.0135,"raan_deg":125.6676,"arg_perigee_deg":57.2121,"mean_anomaly_deg":230.3842,"bstar":0,"rev_number":5327,"period_min":1436.088482717,"perigee_km":35784.043609752,"apogee_km":35788.81663875,"semimajor_km":42164.567124251,"source":"CELESTRAK","updated_at":"2026-09-20T09:00:35.129989Z"}}}